sat.trackr.live / text

‹ back to catalog

LING QIAO

NORAD 40136 · 2014-051A

PAYLOAD ACTIVE UNKNOWN

§ Identity

Operator
Country
PRC
Launch date
2014-09-04
Launch site
JSC
Launch vehicle
Mass (kg)
RCS (m²)
0.31

External: N2YO · Heavens-Above · Gunter

§ Orbital elements

Epoch: 2026-05-25T04:21:37.902816Z

Period
100.68 min
Inclination
98.7061°
Eccentricity
0.0019758
Mean motion
14.30266979 rev/d
Perigee alt
776.7 km
Apogee alt
805.0 km
Semi-major
7,169.0 km
B*
1.0321e-4
RAAN
146.9596°
Arg perigee
239.2671°
Mean anomaly
120.6565°
Rev number
61,171

§ Raw data

LING QIAO1 40136U 14051A   26145.18168869  .00000223  00000+0  10321-3 0  99962 40136  98.7061 146.9596 0019758 239.2671 120.6565 14.30266979611715

JSON: /api/v1/satellites/40136 · /tle

For live sub-satellite position, see the globe view (requires WebGL).

§ Visibility from observer

Set your observer location to see the next 7 days of passes ≥ 10°. The values pass through the URL so the page stays shareable.

No JS? Fill the form by hand. The geolocation button needs JavaScript.